Regional Weather Roundup
Issued by NWS

Home | Current Version | Previous Version | Graphics & Text | Print | Product List | Glossary On
Versions: 1 2 3 4 5 6 7 8 9 10 11 12 13 14 15 16 17 18 19 20 21 22 23 24 25 26 27 28 29 30 31 32 33 34 35 36 37 38 39 40 41 42 43 44 45 46 47 48 49 50
000
ASUS44 KMEG 292210
RWRTN
TENNESSEE HOURLY STATE WEATHER ROUNDUP
NATIONAL WEATHER SERVICE MEMPHIS TN
500 PM CDT MON SEP 29 2014

TNZ002-004-019-021-049-052-054-088>092-292300-
WEST TENNESSEE

CITY           SKY/WX    TMP DP  RH WIND       PRES   REMARKS
MEMPHIS INTL   MOSUNNY   86  59  39 N8        29.94F
NWS MEMPHIS      N/A     85 N/A N/A MISG        N/A
JACKSON        MOSUNNY   83  61  47 CALM      29.94F
DYERSBURG      SUNNY     82  54  36 NW6       29.95S
UNION CITY     SUNNY     84  55  37 VRB3      29.93S
PARIS          SUNNY     82  55  39 N3        29.94F
HUNTINGDON     MOSUNNY   84  57  39 CALM      29.93F
LEXINGTON      SUNNY     82  57  42 N6        29.93F
SAVANNAH       SUNNY     84  61  45 N7        29.93F
$$

TNZ008-025-027-028-033-062-065-066-292300-
NORTH MIDDLE TENNESSEE

CITY           SKY/WX    TMP DP  RH WIND       PRES   REMARKS
NASHVILLE      MOSUNNY   85  57  38 NE3       29.93F
DICKSON        SUNNY     82  57  42 CALM      29.94F
PORTLAND       SUNNY     82  55  39 NW5       29.93F
CLARKSVILLE    SUNNY     85  59  41 N5        29.93S
LEBANON        MOSUNNY   84  55  36 N6        29.92F
SMYRNA         MOSUNNY   86  59  39 N6        29.93F
MURFREESBORO   SUNNY     83  57  40 E3        29.92F
COOKEVILLE     SUNNY     82  61  47 CALM      29.95F
GALLATIN       SUNNY     83  59  44 CALM      29.94
CROSSVILLE     SUNNY     79  55  43 N7        29.99F
$$

TNZ061-075-076-078-094-096-097-292300-
SOUTH MIDDLE TENNESSEE

CITY           SKY/WX    TMP DP  RH WIND       PRES   REMARKS
LEWISBURG      SUNNY     84  58  41 NE7       29.93F
FAYETTEVILLE   MOSUNNY   81  57  44 NE6       29.93F
TULLAHOMA      SUNNY     81  54  39 N8        29.95F
WINCHESTER     SUNNY     82  59  44 VRB6      29.94S
MCMINNVILLE    SUNNY     81  63  54 N5        29.95F
COLUMBIA       MOSUNNY   84  57  39 MISG      29.92
SHELBYVILLE    SUNNY     84  57  39 NE8       29.94S
$$

TNZ017-018-042-046-047-292300-
NORTHEAST TENNESSEE

CITY           SKY/WX    TMP DP  RH WIND       PRES   REMARKS
TRI CITIES     MOSUNNY   74  56  53 S5        29.98F
ELIZABETHTON   PTCLDY    73  55  53 CALM      29.99S HAZE
$$

TNZ012-013-036-069-073-074-292300-
CENTRAL EAST TENNESSEE

CITY           SKY/WX    TMP DP  RH WIND       PRES   REMARKS
KNOXVILLE      MOSUNNY   79  58  48 E6        29.94F
OAK RIDGE      SUNNY     80  60  50 CALM      29.96F
GATLINBURG     CLEAR     79  55  44 CALM      29.95S
$$

TNZ083-085-099-292300-
SOUTHEAST TENNESSEE

CITY           SKY/WX    TMP DP  RH WIND       PRES   REMARKS
CHATTANOOGA    PTSUNNY   81  62  52 SE5       29.94F
$$

SKY/WX REPORTED AS FAIR MEANS FEW OR NO CLOUDS BELOW
12 THOUSAND FEET.



USA.gov is the U.S. government's official web portal to all federal, state and local government web resources and services.